This is the latest recevied weather packets stored in our database for station/object KN6ZYR. If no packets are shown the sender has not sent any weather packets the latest 10 day(s).
| Time | Temp. | Humidity | Pressure | Rain* | Wind** | Luminosity | Snow |
|---|---|---|---|---|---|---|---|
| 1777666227 | 23.89° C | 13% | 1021.7 hPa | 0 mm | - | 796 W/m² | - |
| 1777665924 | 23.89° C | 13% | 1021.9 hPa | 0 mm | - | 798 W/m² | - |
| 1777665621 | 23.89° C | 13% | 1021.8 hPa | 0 mm | - | 788 W/m² | - |
| 1777665318 | 24.44° C | 14% | 1021.8 hPa | 0 mm | - | 800 W/m² | - |
| 1777665014 | 23.33° C | 13% | 1021.8 hPa | 0 mm | - | 802 W/m² | - |
| 1777664710 | 22.78° C | 14% | 1021.9 hPa | 0 mm | - | 793 W/m² | - |
| 1777664405 | 23.33° C | 15% | 1022.1 hPa | 0 mm | - | 804 W/m² | - |
| 1777664104 | 23.33° C | 14% | 1021.9 hPa | 0 mm | - | 803 W/m² | - |
| 1777663801 | 23.89° C | 14% | 1021.9 hPa | 0 mm | - | 803 W/m² | - |
| 1777663498 | 23.89° C | 14% | 1021.8 hPa | 0 mm | - | 801 W/m² | - |
| 1777663195 | 22.78° C | 14% | 1022.2 hPa | 0 mm | - | 799 W/m² | - |
| 1777662893 | 23.89° C | 14% | 1022.2 hPa | 0 mm | - | 797 W/m² | - |
| 1777662590 | 23.33° C | 14% | 1022.3 hPa | 0 mm | - | 795 W/m² | - |
| 1777662286 | 23.33° C | 14% | 1022.4 hPa | 0 mm | - | 792 W/m² | - |
| 1777661981 | 23.33° C | 14% | 1022.4 hPa | 0 mm | - | 787 W/m² | - |
| 1777661677 | 23.33° C | 15% | 1022.6 hPa | 0 mm | - | 786 W/m² | - |
| 1777661373 | 22.78° C | 14% | 1022.5 hPa | 0 mm | - | 780 W/m² | - |
| 1777661070 | 22.78° C | 14% | 1022.6 hPa | 0 mm | - | 776 W/m² | - |
| 1777660765 | 22.22° C | 14% | 1023 hPa | 0 mm | - | 774 W/m² | - |
| 1777660462 | 22.78° C | 15% | 1023 hPa | 0 mm | - | 767 W/m² | - |
| 1777660158 | 22.22° C | 14% | 1022.7 hPa | 0 mm | - | 763 W/m² | - |
| 1777659855 | 22.22° C | 15% | 1023 hPa | 0 mm | - | 757 W/m² | - |
| 1777659552 | 22.22° C | 15% | 1023.1 hPa | 0 mm | - | 747 W/m² | - |
| 1777659249 | 22.78° C | 15% | 1023.4 hPa | 0 mm | - | 741 W/m² | - |
| 1777658946 | 22.22° C | 14% | 1023 hPa | 0 mm | - | 734 W/m² | - |
* Rain latest hour (hover to see other rain measurements)
** Current wind speed in m/s (hover to see current wind gust speed)